CW6575 Weather Reports


Display with metric or nautical units.
time (UTC)temp
F
wind
direction
speed
MPH
gust
MPH
rain 1hr
in
rain 24hr
in
rain mn
in
humidity
%
barometer
mb
20260506101529 55 149 0.0 2.0 0.09 0.11 0.11 92 1005.8
20260506100025 55 155 0.0 5.0 0.07 0.08 0.08 91 1006.0
20260506094523 55 157 0.0 0.0 0.04 0.05 0.05 91 1006.4
20260506093028 56 157 0.0 0.0 0.02 0.03 0.03 90 1006.2
20260506091523 56 157 0.0 0.0 0.01 0.02 0.02 89 1005.9
20260506090022 56 157 0.0 0.0 0.01 0.01 0.01 87 1005.9
20260506084516 57 157 0.0 0.0 0.01 0.01 0.01 85 1006.0
20260506083014 57 157 0.0 0.0 0.01 0.01 0.01 82 1006.0
20260506081509 59 157 0.0 0.0 0.01 0.01 0.01 74 1006.0
20260506073109 62 157 0.0 1.0 0.00 0.00 0.00 57 1006.1
20260506073002 62 157 0.0 1.0 0.00 0.00 0.00 57 1006.1
20260506071600 62 163 0.0 2.0 0.00 0.00 0.00 58 1005.9
20260506070104 63 163 0.0 3.0 0.00 0.00 0.00 56 1006.0
20260506061548 65 168 2.0 6.0 0.00 0.00 0.00 49 1006.2
20260506044544 66 164 2.0 8.0 0.00 0.00 0.00 47 1007.6
20260506043036 66 165 2.0 7.0 0.00 0.00 0.00 46 1007.7
20260506041534 67 237 6.0 11.0 0.00 0.00 0.00 45 1007.6
20260506040051 67 162 4.0 11.0 0.00 0.00 0.00 45 1007.7
20260506034530 67 157 2.0 8.0 0.00 0.00 0.00 46 1007.5
20260506033029 66 169 4.0 12.0 0.00 0.00 0.00 45 1007.7
20260506031541 62 146 3.0 8.0 0.00 0.00 0.00 54 1007.6
20260506030027 60 156 1.0 4.0 0.00 0.00 0.00 62 1007.8
20260506024529 61 160 1.0 3.0 0.00 0.00 0.00 61 1008.1
20260506023027 61 156 2.0 3.0 0.00 0.00 0.00 63 1008.1
20260506021526 61 163 2.0 5.0 0.00 0.00 0.00 61 1008.2
20260506020025 61 150 3.0 5.0 0.00 0.00 0.00 61 1008.5
20260506014524 61 169 1.0 4.0 0.00 0.00 0.00 62 1008.5
20260506013024 61 168 1.0 6.0 0.00 0.00 0.00 59 1008.3
20260506011527 62 162 2.0 3.0 0.00 0.00 0.00 59 1008.5
20260506010022 62 156 2.0 5.0 0.00 0.00 0.00 59 1008.2
20260506004526 62 159 0.0 1.0 0.00 0.00 0.00 60 1008.4
20260506003022 63 159 0.0 2.0 0.00 0.00 0.00 58 1008.2
20260506001522 63 160 1.0 4.0 0.00 0.00 0.00 57 1008.1
20260506000023 67 119 0.0 1.0 0.00 0.00 0.00 48 1008.3
20260505234520 67 315 0.0 0.0 0.00 0.00 0.00 46 1008.0
20260505233020 69 315 0.0 0.0 0.00 0.00 0.00 42 1007.8
20260505231528 71 323 0.0 2.0 0.00 0.00 0.00 38 1007.7
20260505230026 72 307 1.0 3.0 0.00 0.00 0.00 37 1007.6
20260505224518 73 300 1.0 4.0 0.00 0.00 0.00 35 1007.7
20260505223016 73 322 2.0 7.0 0.00 0.00 0.00 35 1008.0
20260505221514 74 276 1.0 5.0 0.00 0.00 0.00 34 1008.1
20260505220014 74 355 2.0 5.0 0.00 0.00 0.00 33 1008.1
20260505214513 74 236 2.0 9.0 0.00 0.00 0.00 30 1008.3
20260505213011 76 321 3.0 8.0 0.00 0.00 0.00 30 1008.3
20260505211507 75 333 3.0 8.0 0.00 0.00 0.00 31 1008.1
20260505210007 74 188 4.0 9.0 0.00 0.00 0.00 33 1008.0
20260505204605 74 314 1.0 5.0 0.00 0.00 0.00 41 1008.0
20260505203004 74 324 1.0 4.0 0.00 0.00 0.00 39 1008.2
20260505201505 74 309 1.0 6.0 0.00 0.00 0.00 34 1008.3
20260505200001 74 360 3.0 11.0 0.00 0.00 0.00 36 1008.2
20260505194624 74 191 2.0 9.0 0.00 0.00 0.00 33 1008.4
20260505194502 74 117 2.0 9.0 0.00 0.00 0.00 34 1008.5
20260505193100 74 305 4.0 10.0 0.00 0.00 0.00 34 1008.5
20260505191557 75 355 5.0 11.0 0.00 0.00 0.00 32 1008.7
20260505190054 75 314 5.0 12.0 0.00 0.00 0.00 33 1009.0
20260505184552 75 147 2.0 8.0 0.00 0.00 0.00 39 1009.0
20260505183050 74 257 0.0 8.0 0.00 0.00 0.00 41 1009.3
20260505181555 74 178 5.0 10.0 0.00 0.00 0.00 38 1009.4
20260505180047 74 329 3.0 12.0 0.00 0.00 0.00 37 1009.4
20260505174549 73 244 3.0 15.0 0.00 0.00 0.00 38 1009.8
20260505173041 73 288 2.0 9.0 0.00 0.00 0.00 38 1009.9
20260505171639 73 177 3.0 12.0 0.00 0.00 0.00 41 1010.1
20260505170038 73 335 3.0 9.0 0.00 0.00 0.00 39 1010.2
20260505164536 72 134 2.0 6.0 0.00 0.00 0.00 41 1010.4
20260505163038 72 12 2.0 10.0 0.00 0.00 0.00 40 1010.6
20260505161535 72 140 4.0 10.0 0.00 0.00 0.00 43 1010.7
20260505153029 71 167 2.0 9.0 0.00 0.00 0.00 48 1011.4
20260505151525 69 132 3.0 11.0 0.00 0.00 0.00 46 1011.5
20260505124513 64 175 3.0 13.0 0.00 0.00 0.00 54 1012.0
20260505123005 63 138 2.0 9.0 0.00 0.00 0.00 56 1012.2
20260505121502 62 322 0.0 5.0 0.00 0.00 0.00 59 1012.1
20260505120121 61 164 0.0 7.0 0.00 0.00 0.00 62 1012.3
20260505114555 58 161 0.0 2.0 0.00 0.00 0.00 68 1012.2
20260505113054 57 126 0.0 0.0 0.00 0.00 0.00 68 1012.2
20260505111551 57 135 0.0 0.0 0.00 0.00 0.00 69 1012.2